Hourly Data Report for September 28, 2017

All times are specified in Local Standard Time (LST). Add 1 hour to adjust for Daylight Saving Time where and when it is observed.

WINNIPEG A CS
MANITOBA

49°55'00.000" N
97°14'58.000" W
238.70 m
502S001
71849
XWG

Download Data

Hourly Data (September 2017)
Hourly Data Report for September 28, 2017
Temp Definition
°C
Dew Point Temp Definition
°C
Rel Hum Definition
%
Wind Dir Definition
10's deg

Wind Spd Definition
km/h
Visibility Definition
km
Stn Press Definition
kPa
Hmdx Definition


Wind Chill Definition


Weather Definition


TIME
00:00 7.1 5.9 92 27 8   98.94     LegendNANA
01:00 6.9 5.9 93 27 10   98.95     LegendNANA
02:00 7.2 6.6 96 28 11   98.98     LegendNANA
03:00 7.7 6.6 92 30 5   98.99     LegendNANA
04:00 7.3 6.2 93 30 6   99.01     LegendNANA
05:00 7.7 6.8 94 29 6   99.01     LegendNANA
06:00 7.3 6.4 94 32 7   99.05     LegendNANA
07:00 6.3 5.3 93 28 10   99.11     LegendNANA
08:00 10.6 8.8 88 30 12   99.14     LegendNANA
09:00 13.0 9.5 79 35 14   99.21     LegendNANA
10:00 14.8 7.1 60 1 19   99.26     LegendNANA
11:00 15.9 7.7 58 1 21   99.29     LegendNANA
12:00 16.6 6.2 50 34 23   99.32     LegendNANA
13:00 15.3 6.3 55 35 24   99.34     LegendNANA
14:00 15.4 7.2 58 1 26   99.39     LegendNANA
15:00 14.5 6.7 59 1 23   99.43     LegendNANA
16:00 14.2 6.5 60 1 26   99.47     LegendNANA
17:00 13.6 5.2 57 36 26   99.55     LegendNANA
18:00 12.5 6.2 65 36 13   99.59     LegendNANA
19:00 12.1 5.4 64 35 14   99.65     LegendNANA
20:00 10.3 4.6 67 34 13   99.69     LegendNANA
21:00 9.0 4.8 75 35 13   99.73     LegendNANA
22:00 4.6 3.1 90 32 9   99.77     LegendNANA
23:00 3.5 2.5 94 33 9   99.80     LegendNANA

Notes on Data Quality.

Legend

  • E = Estimated
  • M = Missing
  • NA = Not Available
  • ‡ = Partner data that is not subject to review by the National Climate Archives
Date modified: